This demonstration page uses our WeatherBlox Daily Observations layout. Learn more.

Left ArrowRight Arrow

41.86663, -103.66717

Hourly Observations for March 26, 2021

Temp ( °F °C ) Dew Point ( °F °C ) Humidity (%) Winds ( mph kmh ) Pressure ( in mb ) Visibility ( mi km ) Precip ( " mm )
12:53 am 00:53 Partly Cloudy 37 2.8 30 -1.1 76 76 NW 8 13 29.67 1005 10 16.0934 0 0
1:53 am 01:53 Partly Cloudy 35 1.7 29 -1.7 78 78 NW 3 6 29.68 1005 10 16.0934 0 0
2:53 am 02:53 Mostly Cloudy 35 1.7 29 -1.7 78 78 NNW 5 7 29.7 1006 10 16.0934 0 0
3:53 am 03:53 Mostly Cloudy 33 0.6 30 -1.1 89 89 NNW 6 9 29.7 1006 10 16.0934 0 0
4:53 am 04:53 Mostly Cloudy 33 0.6 29 -1.7 85 85 WNW 7 11 29.7 1006 10 16.0934 0 0
5:53 am 05:53 Cloudy 36 2.2 31 -0.6 82 82 Calm 29.72 1006 10 16.0934 0 0
6:53 am 06:53 Cloudy 36 2.2 32 0 86 86 ESE 3 6 29.75 1007 10 16.0934 0 0
7:53 am 07:53 Cloudy 37 2.8 33 0.6 86 86 Calm 29.77 1008 10 16.0934 0 0
8:53 am 08:53 Cloudy 42 5.6 35 1.7 76 76 Calm 29.79 1009 10 16.0934 0 0
9:53 am 09:53 Sunny 45 7.2 39 3.9 80 80 NE 8 13 29.8 1009 10 16.0934 0 0
10:53 am 10:53 Cloudy 46 7.8 41 5 83 83 NE 8 13 29.82 1010 10 16.0934 0 0
11:53 am 11:53 Cloudy 43 6.1 39 3.9 86 86 SE 7 11 29.83 1010 10 16.0934 0 0
12:32 pm 12:32 Cloudy with Light Rain 41 5 40 4.4 96 96 ESE 5 7 29.86 1011 6 9.65604 0.001 0.001
12:53 pm 12:53 Cloudy with Light Rain 41 5 39 3.9 93 93 ENE 5 7 29.86 1011 9 14.48406 0.01 0.254
1:05 pm 13:05 Cloudy with Light Rain 40 4.4 39 3.9 97 97 SE 7 11 29.88 1012 7 11.26538 0.01 0.254
1:19 pm 13:19 Cloudy with Light Rain 38 3.3 38 3.3 100 100 SE 8 13 29.91 1013 4 6.43736 0.03 0.762
1:53 pm 13:53 Cloudy with Rain 37 2.8 37 2.8 100 100 N 5 7 29.88 1012 3 4.82802 0.09 2.286
2:04 pm 14:04 Cloudy with Light Snow 36 2 36 2 100 100 NNE 8 13 29.93 1013 3 4.82802 0 0
2:12 pm 14:12 Cloudy with Light Snow 36 2 N/A N/A N 9 15 29.92 1013 3 4.82802 0 0
2:37 pm 14:37 Cloudy with Light Snow 36 2 N/A N/A N 7 11 29.93 1013 3 4.82802 0.07 1.778
2:43 pm 14:43 Cloudy with Light Snow 36 2 N/A N/A N 6 9 29.93 1013 2.5 4.02335 0.08 2.032
2:53 pm 14:53 Cloudy with Light Snow 36 2 N/A N/A N 6 9 29.88 1012 1.75 2.816345 0.09 2.286
3:12 pm 15:12 Cloudy with Light Snow 36 2 N/A N/A NE 6 9 29.93 1013 2.5 4.02335 0.03 0.762
3:22 pm 15:22 Cloudy with Light Snow 36 2 N/A N/A ENE 5 7 29.93 1013 4 6.43736 0.04 1.016
3:53 pm 15:53 Cloudy with Light Rain 36 2 N/A N/A Calm 29.89 1012 5 8.0467 0.07 1.778
4:53 pm 16:53 Cloudy with Light Rain 39 3.9 39 3.9 100 100 NE 6 9 29.9 1012 10 16.0934 0.01 0.254
5:45 pm 17:45 Cloudy 40 4.4 40 4.4 100 100 NNE 7 11 29.91 1013 10 16.0934 0.001 0.001
5:53 pm 17:53 Cloudy 41 5 41 5 100 100 NNE 7 11 29.9 1013 10 16.0934 0.001 0.001
6:53 pm 18:53 Cloudy 39 3.9 39 3.9 100 100 Calm 29.93 1013 10 16.0934 0 0
7:42 pm 19:42 Cloudy 37 3 N/A N/A undefined N/A 29.97 1015 10 16.0934 0 0
7:53 pm 19:53 Cloudy 37 3 N/A N/A S 5 7 29.94 1014 10 16.0934 0 0
8:40 pm 20:40 Mostly Cloudy 36 2 N/A N/A SSW 5 7 30.01 1016 10 16.0934 0 0
8:53 pm 20:53 Cloudy 36 2 N/A N/A S 5 7 29.95 1014 10 16.0934 0 0
9:48 pm 21:48 Partly Cloudy 36 2 N/A N/A S 3 6 30.03 1017 10 16.0934 0 0
9:53 pm 21:53 Mostly Clear 37 3 N/A N/A Calm 29.96 1015 10 16.0934 0 0
10:53 pm 22:53 Clear 34 1 N/A N/A S 5 7 29.96 1015 10 16.0934 0 0
11:11 pm 23:11 Mostly Clear with Mist and Fog 30 -1 N/A N/A Calm 30.08 1019 1.5 2.41401 0 0
11:13 pm 23:13 Mostly Cloudy with Mist and Fog 30 -1 N/A N/A Calm 30.08 1019 0.75 1.207005 0 0
11:22 pm 23:22 Mostly Cloudy with Freezing Fog 30 -1 N/A N/A Calm 30.08 1019 0.25 0.402335 0 0
11:53 pm 23:53 Mostly Cloudy with Mist and Fog 31 -0.6 31 -0.6 100 100 N 6 9 29.99 1016 1 1.60934 0 0

Powered by AerisWeather